Regional Weather Roundup
Issued by NWS

Home | Current Version | Previous Version | Text Only | Print | Product List | Glossary On
Versions: 1 2 3 4 5 6 7 8 9 10 11 12 13 14 15 16 17 18 19 20 21 22 23 24 25 26 27 28 29 30 31 32 33 34 35 36 37 38 39 40 41 42 43 44 45 46 47 48 49 50
000
ASUS45 KTFX 232219
RWRMT
MONTANA HOURLY WEATHER ROUNDUP
NATIONAL WEATHER SERVICE GREAT FALLS MT
319 PM MST SUN NOV 23 2014

NOTE: "FAIR" INDICATES FEW OR NO CLOUDS BELOW 12000 FEET WITH NO
SIGNIFICANT WEATHER AND/OR OBSTRUCTIONS TO VISIBILITY.

* THESE STATIONS ARE NOT UNDER NWS QUALITY CONTROL. THEY DO NOT
   REPORT WEATHER SUCH AS PRECIPITATION OR FOG.

MTZ001>007-043-232300-
WEST OF THE DIVIDE
CITY           SKY/WX    TMP DP  RH WIND       PRES   REMARKS
KALISPELL      LGT SNOW  34  32  92 SE10      29.94F VSB 1    WCI  26
MISSOULA       CLOUDY    37  28  70 S9        30.01F WCI  30
BUTTE          CLOUDY    34  18  52 W13       29.96F WCI  25
MULLAN PASS    SNOW      27  25  92 SW10G18   29.89F VSB M1/4 WCI  18
* ESSEX        N/A       31  29  92 N/A        N/A
* EUREKA APT   CLOUDY    36  30  79 SE14      29.90F WCI  27
* HAMILTON APT CLOUDY    39  25  57 S12       30.02F WCI  32
* LIBBY APT    CLOUDY    34  30  85 NW3       29.93F VSB 1 3/4
* LINCOLN      N/A       33  26  75 SW6G16     N/A   WCI  27
* LOOKOUT PASS N/A       30  30 100 SE4G9      N/A
* POLSON       N/A       34  27  76 S1G10      N/A
* RONAN APT    CLOUDY    37  28  70 SE10       N/A   WCI  30
* SEELEY LAKE  N/A       33  27  79 E2         N/A
* THOMP F APT  CLOUDY    33  12  42 NW9G26     N/A   WCI  25
* YAAK HILL    N/A       33  30  89 N/A        N/A
$$

MTZ008-052>055-232300-
SOUTHWEST MONTANA
CITY           SKY/WX    TMP DP  RH WIND       PRES   REMARKS
BOZEMAN        PTSUNNY   37  18  46 NW10      29.98S WCI  30
DILLON         CLOUDY    36  19  50 SW23G28   30.00F WCI  24
* W YELLOWSTON PTCLDY    28  15  58 W4G10      N/A
* ENNIS APT    CLOUDY    36  12  37 N/A        N/A
* THREE FORKS  CLOUDY    41  16  36 SW8        N/A
* BOULDER HILL N/A       33  11  40 S9G14      N/A   WCI  25
* MONIDA PASS  N/A       27  12  53 NW24G31    N/A   WCI  12
* RAYNOLDS PAS N/A       29 -17  12 VRB8       N/A   WCI  21
* WHITEHALL    N/A       41  15  35 W10G29     N/A
* WISE RIVER   N/A       32  16  52 W19G29     N/A   WCI  20
$$

MTZ009>010-012-014-046-048-049-054-232300-
EAST SLOPES AND CENTRAL MONTANA
CITY           SKY/WX    TMP DP  RH WIND       PRES   REMARKS
CUT BANK       CLOUDY    37  19  48 W16       29.78F WCI  28
GREAT FALLS    CLOUDY    41  18  39 SW21G28   29.84F
HELENA         CLOUDY    43  19  38 W22G30    29.93F
MALMSTROM AFB  PTSUNNY   41  18  39 SW14      29.87F
* CONRAD       CLOUDY    43  19  38 SW14       N/A
* DEARBORN     N/A       41  19  41 S12G20     N/A
* EAST GLACIER N/A       33  18  54 NW43G57    N/A   WCI  17
* MONARCH      N/A       32  13  45 W20G30     N/A   WCI  20
* PENDROY      N/A       38  18  44 VRB6G17    N/A   WCI  33
* ROGERS PASS  N/A       28  22  78 SE18G30    N/A   WCI  15
* SAINT MARY   N/A       33  22  64 S12G34     N/A   WCI  24
* SWEET GRASS  N/A       39  19  45 W17G23     N/A   WCI  30
* WHITE SULPH  N/A       34  15  46 W4G17      N/A
$$

MTZ011-013-016-021-035-040-045-047-050-051-232300-
NORTH CENTRAL MONTANA
CITY           SKY/WX    TMP DP  RH WIND       PRES   REMARKS
HAVRE          SUNNY     43  27  53 W10       29.81F
LEWISTOWN      PTSUNNY   43  16  34 W25G32    29.83F
* N BAR RANCH  SUNNY     37  12  36 NW23G40   29.81F WCI  26
* CHINOOK      SUNNY     41  23  49 NW9       29.82S
* FORT BENTON  PTCLDY    45  18  34 W8        29.85S
* MALTA APT    SUNNY     37  25  62 W17G23     N/A   WCI  27
* CHESTER      N/A       41  20  43 W17G25     N/A
* DENTON       N/A       42  15  33 W25G32     N/A
* GEYSER       N/A       39  14  36 W27G35     N/A   WCI  28
* JUDITH GAP   N/A       39  13  34 W16        N/A   WCI  30
* LOMA         N/A       44  18  35 SW20G26    N/A
$$

MTZ017>020-022>027-061-062-232300-
NORTHEAST MONTANA
CITY           SKY/WX    TMP DP  RH WIND       PRES   REMARKS
GLASGOW        PTSUNNY   27  19  72 NW14      29.81S WCI  16
GLENDIVE       PTSUNNY   25  16  69 W24G31    29.78F WCI  10
JORDAN         PTCLDY    37  25  62 NW21      29.79F WCI  26
SIDNEY         CLOUDY    25  18  75 W10       29.80R WCI  15
WOLF POINT     CLOUDY    28  16  61 NW18      29.83S WCI  15
* BEAVER HILL  N/A       23  16  74 W29G37     N/A   WCI   6
* CIRCLE       N/A       26  20  78 NW12       N/A   WCI  15
* LINDSAY DVD  N/A       22  17  81 NW24G31    N/A   WCI   6
* NAVAJO       N/A       20  14  77 NW21       N/A   WCI   4
* PLENTYWOOD A PTSUNNY   19  12  74 NW15G21   29.78R WCI   5
* POPLAR APT   PTSUNNY   27  18  69 N/A       29.81S
* SACO         N/A       30  20  66 NW6        N/A   WCI  24
* SCOBEY APT   PTCLDY    21  12  68 NW20G25    N/A   WCI   6
$$

MTZ028>042-056>058-232300-
SOUTHCENTRAL AND SOUTHEAST MONTANA
CITY           SKY/WX    TMP DP  RH WIND       PRES   REMARKS
BAKER          CLOUDY    27  19  72 NW28G37   29.75S WCI  11
BILLINGS       PTCLDY    43  12  28 W18G30    29.87S
LIVINGSTON     PTCLDY    39  16  39 W24G37    29.91F WCI  28
MILES CITY     CLOUDY    39  25  57 NW20G25   29.79F WCI  29
* BIG TIMBER A PTCLDY    37  14  39 SW32G38   29.88F WCI  24
* FORSYTH APT  PTCLDY    43  19  38 NW24G36   29.80F
* LAUREL APT   SUNNY     45  12  26 W20G29     N/A
* ALZADA       N/A       34  22  61 W22G27     N/A   WCI  22
* HYSHAM       N/A       41  15  35 NW15G21    N/A
* LAME DEER    N/A       34  18  52 W11G20     N/A   WCI  26
* REED POINT   N/A       41  17  38 W25G37     N/A
* ROSCOE HILL  N/A       37   3  24 W11G30     N/A   WCI  29
$$

REGIONAL REPORTS...DAKOTAS
CITY           SKY/WX    TMP DP  RH WIND       PRES   REMARKS
WILLISTON      CLOUDY    21  10  62 NW23G29   29.78R WCI   5
DICKINSON      CLOUDY    25  16  69 NW31G39   29.66R WCI   8
BEACH          CLOUDY    23  19  85 NW29G36   29.75R WCI   6
CROSBY         CLOUDY    18  10  71 NW17G29   29.77R WCI   3
TIOGA          LGT SNOW  16  14  92 NW28G36   29.74R WCI  -4
BISMARCK       CLOUDY    23  14  68 NW23G31   29.64R WCI   7
GRAND FORKS    FRZ RAIN  25  21  85 N15       29.50R WCI  13
FARGO          CLOUDY    34  21  59 W18       29.48R WCI  23
BUFFALO SD     PTCLDY    30  19  64 NW31G40   29.63R WCI  15
RAPID CITY     PTSUNNY   37  21  52 NW31G49   29.70R WCI  24
$$

REGIONAL REPORTS...WYOMING/IDAHO/WASHINGTON
CITY           SKY/WX    TMP DP  RH WIND       PRES   REMARKS
SHERIDAN       CLOUDY    37  25  62 NW12      29.84F WCI  29
CODY           PTCLDY    37   7  28 W14G30    29.87S WCI  28
YELLOWSTONE LA PTCLDY    23   9  55 W7        29.98R WCI  15
SALMON         PTSUNNY   37  23  57 N7        30.08F WCI  32
MULLAN PASS    SNOW      27  25  92 SW10G18   29.89S VSB M1/4 WCI  18
SAND POINT     LGT RAIN  34  34 100 SW6       29.96F WCI  29
SPOKANE        CLOUDY    41  36  82 SW30G39   29.94F
$$

REGIONAL REPORTS...ALBERTA
CITY           SKY/WX    TMP DP  RH WIND       PRES   REMARKS
CALGARY        CLOUDY    34  23  64 S5        29.65F WCI  29
LETHBRIDGE     PTSUNNY   39  21  48 W17       29.74F WCI  30
MEDICINE HAT   PTCLDY    36  27  70 S7        29.77F WCI  30
EDMONTON       PTSUNNY   25  19  78 SE7       29.66F WCI  17
WATERTON GATE  N/A       36  23  59 SW33G51    N/A   WCI  22
CARDSTON       N/A       39  21  48 W13G22     N/A   WCI  31
MILK RIVER     N/A       37  21  52 W9         N/A   WCI  30
$$

REGIONAL REPORTS...SASKATCHEWAN
CITY           SKY/WX    TMP DP  RH WIND       PRES   REMARKS
SWIFT CURRENT  SUNNY     18  12  77 NW12      29.78S WCI   5
MOOSE JAW      N/A       18  14  84 NW13      29.83R WCI   5
REGINA         PTSUNNY   14   9  80 N14       29.81R WCI  -1
VAL MARIE      N/A       28  19  69 N9         N/A   WCI  19
ASSINIBOIA     N/A       19  16  88 NW13       N/A   WCI   6

$$




USA.gov is the U.S. government's official web portal to all federal, state and local government web resources and services.